Marshalltown, IA

4:56 AM CST on November 17, 2019 (GMT -0600)
Marshalltown Municipal

Weather History for KMIW - October, 2019

Change the Weather History Date:

Tuesday, October 15, 2019

  Actual Average Record
Temperature  
Mean Temperature 48 °F 50 °F  
Max Temperature 57 °F 62 °F 84 °F (1999)
Min Temperature 42 °F 39 °F 26 °F (2002)
Degree Days  
Heating Degree Days 16 15  
Month to date heating degree days 185  
Since 1 July heating degree days 345  
Cooling Degree Days 0 0  
Month to date cooling degree days 10  
Year to date cooling degree days 728  
Moisture  
Dew Point 40 °F    
Average Humidity 75    
Maximum Humidity 93    
Minimum Humidity 55    
Precipitation  
Precipitation 0.00 in 0.09 in 0.53 in (2008)
Month to date precipitation 1.07  
Sea Level Pressure  
Sea Level Pressure 29.90 in    
Wind  
Wind Speed 14 mph (WNW)    
Max Wind Speed 28 mph    
Max Gust Speed 39 mph    
Visibility 10 miles    
Events      
T = Trace of Precipitation, MM = Missing Value Source: NWS Daily Summary

Daily Weather History Graph

Daily Weather History Graph

Search for Another Location

Airport or City:

Astronomy

Oct. 15, 2019 Rise Set
Actual Time 7:24 AM CDT 6:30 PM CDT
Civil Twilight 6:55 AM CDT 6:58 PM CDT
Nautical Twilight 6:23 AM CDT 7:30 PM CDT
Astronomical Twilight 5:50 AM CDT 8:03 PM CDT
Moon 7:49 PM CDT (10/15) 8:56 AM CDT (10/15)
Length of Visible Light 12h 02m
Length of Day
11h 06m
Full, 97% of the Moon is Illuminated
Oct 15
Full
Oct 21
Last Quarter
Oct 27
New
Nov 4
First Quarter
Nov 12
Full

Hourly Weather History & Observations

Time (CDT) Temp. Windchill Dew Point Humidity Pressure Visibility Wind Dir Wind Speed Gust Speed Precip Events Conditions
12:53 AM 46.0 °F 40.6 °F 39.0 °F 76% 29.87 in 10.0 mi SE 11.5 mph - N/A   Clear
1:53 AM 45.0 °F 40.1 °F 39.0 °F 80% 29.84 in 10.0 mi SE 9.2 mph - N/A   Clear
2:53 AM 45.0 °F 40.1 °F 39.9 °F 82% 29.82 in 10.0 mi SE 9.2 mph - N/A   Clear
3:53 AM 44.1 °F 39.5 °F 39.9 °F 85% 29.79 in 10.0 mi SE 8.1 mph - N/A   Clear
4:53 AM 45.0 °F 41.2 °F 41.0 °F 86% 29.78 in 10.0 mi SSE 6.9 mph - N/A   Clear
5:53 AM 44.1 °F 40.1 °F 41.0 °F 89% 29.77 in 10.0 mi SSE 6.9 mph - N/A   Clear
6:53 AM 46.0 °F 41.9 °F 44.1 °F 93% 29.77 in 10.0 mi SW 8.1 mph - N/A   Clear
7:53 AM 48.0 °F - 46.0 °F 93% 29.77 in 10.0 mi WSW 10.4 mph - N/A   Clear
8:53 AM 48.9 °F - 46.0 °F 90% 29.79 in 10.0 mi WNW 12.7 mph - N/A   Clear
9:53 AM 51.1 °F - 43.0 °F 74% 29.83 in 10.0 mi WNW 16.1 mph 26.5 mph N/A   Clear
10:53 AM 51.1 °F - 41.0 °F 68% 29.85 in 10.0 mi WNW 21.9 mph 28.8 mph N/A   Clear
11:53 AM 54.0 °F - 39.9 °F 59% 29.86 in 10.0 mi WNW 21.9 mph 33.4 mph N/A   Clear
12:53 PM 55.9 °F - 39.9 °F 55% 29.86 in 10.0 mi WNW 23.0 mph 29.9 mph N/A   Clear
1:53 PM 55.0 °F - 41.0 °F 59% 29.87 in 10.0 mi WNW 24.2 mph 34.5 mph N/A   Clear
2:53 PM 54.0 °F - 41.0 °F 62% 29.88 in 10.0 mi WNW 27.6 mph 39.1 mph N/A   Overcast
3:53 PM 50.0 °F - 39.0 °F 66% 29.92 in 10.0 mi NW 23.0 mph 36.8 mph N/A   Overcast
4:53 PM 51.1 °F - 37.0 °F 59% 29.93 in 10.0 mi WNW 20.7 mph 31.1 mph N/A   Overcast
5:53 PM 48.9 °F - 36.0 °F 61% 29.95 in 10.0 mi NW 19.6 mph 31.1 mph N/A   Overcast
6:53 PM 48.0 °F - 37.0 °F 66% 29.98 in 10.0 mi NW 20.7 mph 28.8 mph N/A   Overcast
7:53 PM 46.0 °F 39.6 °F 36.0 °F 68% 30.00 in 10.0 mi NW 15.0 mph 27.6 mph N/A   Overcast
8:53 PM 44.1 °F 36.2 °F 37.0 °F 76% 30.03 in 10.0 mi NW 18.4 mph 33.4 mph N/A   Overcast
9:53 PM 43.0 °F 35.7 °F 37.0 °F 80% 30.03 in 10.0 mi NW 15.0 mph - N/A   Mostly Cloudy
10:50 PM 42.8 °F 35.8 °F 37.4 °F 81% 30.04 in 10.0 mi NW 13.8 mph - N/A   Mostly Cloudy
10:53 PM 42.1 °F 34.5 °F 37.0 °F 82% 30.05 in 10.0 mi NW 15.0 mph - N/A   Scattered Clouds
11:41 PM 42.1 °F 35.7 °F 37.9 °F 85% 30.04 in 10.0 mi NW 11.5 mph - N/A   Mostly Cloudy
11:53 PM 42.1 °F 36.1 °F 37.9 °F 85% 30.05 in 10.0 mi NW 10.4 mph - N/A   Overcast